Princeton, MN

5:21 AM CST on December 06, 2019 (GMT -0600)
Princeton Municipal

Weather History for KPNM - May, 2019

Change the Weather History Date:

Monday, May 6, 2019

  Actual Average Record
Temperature  
Mean Temperature 50 °F -  
Max Temperature 57 °F 62 °F 91 °F (2016)
Min Temperature 42 °F 40 °F 35 °F (2000)
Degree Days  
Heating Degree Days 16    
Moisture  
Dew Point 26 °F    
Average Humidity 41    
Maximum Humidity 57    
Minimum Humidity 29    
Precipitation  
Precipitation 0.00 in - - ()
Sea Level Pressure  
Sea Level Pressure 30.12 in    
Wind  
Wind Speed 7 mph (NNW)    
Max Wind Speed 14 mph    
Max Gust Speed 23 mph    
Visibility 10 miles    
Events      
Averages and records for this station are not official NWS values.
T = Trace of Precipitation, MM = Missing Value Source: NWS Daily Summary

Daily Weather History Graph

Daily Weather History Graph

Search for Another Location

Airport or City:

Astronomy

May. 06, 2019 Rise Set
Actual Time 5:55 AM CDT 8:27 PM CDT
Civil Twilight 5:22 AM CDT 9:01 PM CDT
Nautical Twilight 4:40 AM CDT 9:43 PM CDT
Astronomical Twilight 3:52 AM CDT 10:31 PM CDT
Moon 7:17 AM CDT 10:28 PM CDT
Length of Visible Light 15h 38m
Length of Day
14h 32m
Waxing Crescent, 3% of the Moon is Illuminated
May 6
Waxing Crescent
May 11
First Quarter
May 18
Full
May 26
Last Quarter
Jun 3
New

Hourly Weather History & Observations

Time (CDT) Temp. Windchill Dew Point Humidity Pressure Visibility Wind Dir Wind Speed Gust Speed Precip Events Conditions
12:15 AM 50.0 °F - 26.6 °F 40% 30.00 in 10.0 mi NNW 9.2 mph - N/A   Overcast
12:16 AM 50.0 °F - 26.6 °F 40% 30.00 in 10.0 mi NNW 8.1 mph - N/A   Overcast
12:35 AM 48.2 °F - 26.6 °F 43% 30.00 in 10.0 mi NNW 6.9 mph - N/A   Overcast
12:55 AM 48.2 °F - 26.6 °F 43% 30.01 in 10.0 mi Calm Calm - N/A   Overcast
12:56 AM 48.2 °F - 26.6 °F 43% 30.01 in 10.0 mi NNW 4.6 mph - N/A   Overcast
1:15 AM 48.2 °F - 26.6 °F 43% 30.01 in 10.0 mi NW 6.9 mph - N/A   Overcast
1:35 AM 48.2 °F - 26.6 °F 43% 30.01 in 10.0 mi NNW 9.2 mph - N/A   Overcast
1:55 AM 48.2 °F - 26.6 °F 43% 30.01 in 10.0 mi NNW 6.9 mph - N/A   Overcast
1:56 AM 48.2 °F - 26.6 °F 43% 30.01 in 10.0 mi NNW 6.9 mph - N/A   Overcast
2:15 AM 46.4 °F 43.5 °F 26.6 °F 46% 30.02 in 10.0 mi North 5.8 mph - N/A   Overcast
2:35 AM 46.4 °F 44.3 °F 28.4 °F 50% 30.02 in 10.0 mi NNW 4.6 mph - N/A   Overcast
2:55 AM 46.4 °F 44.3 °F 28.4 °F 50% 30.02 in 10.0 mi NNW 4.6 mph - N/A   Mostly Cloudy
3:15 AM 46.4 °F 43.5 °F 28.4 °F 50% 30.03 in 10.0 mi NNW 5.8 mph - N/A   Overcast
3:35 AM 46.4 °F 42.9 °F 28.4 °F 50% 30.03 in 10.0 mi NNW 6.9 mph - N/A   Overcast
3:36 AM 46.4 °F 42.4 °F 28.4 °F 50% 30.03 in 10.0 mi NNW 8.1 mph - N/A   Overcast
3:55 AM 44.6 °F 39.7 °F 28.4 °F 53% 30.04 in 10.0 mi NNW 9.2 mph - N/A   Overcast
3:56 AM 44.6 °F 39.7 °F 28.4 °F 53% 30.04 in 10.0 mi NNW 9.2 mph - N/A   Overcast
4:15 AM 44.6 °F 40.2 °F 28.4 °F 53% 30.05 in 10.0 mi North 8.1 mph 16.1 mph N/A   Overcast
4:35 AM 44.6 °F 38.8 °F 26.6 °F 49% 30.05 in 10.0 mi North 11.5 mph 16.1 mph N/A   Overcast
4:36 AM 44.6 °F 38.8 °F 26.6 °F 49% 30.05 in 10.0 mi North 11.5 mph 16.1 mph N/A   Overcast
4:55 AM 44.6 °F 39.2 °F 26.6 °F 49% 30.06 in 10.0 mi North 10.4 mph 20.7 mph N/A   Overcast
4:56 AM 44.6 °F 39.2 °F 26.6 °F 49% 30.06 in 10.0 mi North 10.4 mph 20.7 mph N/A   Overcast
5:15 AM 44.6 °F 40.2 °F 26.6 °F 49% 30.06 in 10.0 mi North 8.1 mph - N/A   Overcast
5:35 AM 44.6 °F 42.2 °F 26.6 °F 49% 30.07 in 10.0 mi NNW 4.6 mph - N/A   Overcast
5:36 AM 44.6 °F 42.2 °F 26.6 °F 49% 30.07 in 10.0 mi NNW 4.6 mph - N/A   Overcast
5:55 AM 44.6 °F 40.7 °F 26.6 °F 49% 30.08 in 10.0 mi North 6.9 mph - N/A   Overcast
6:15 AM 42.8 °F 39.3 °F 26.6 °F 53% 30.09 in 10.0 mi North 5.8 mph - N/A   Overcast
6:35 AM 42.8 °F 38.0 °F 28.4 °F 57% 30.10 in 10.0 mi North 8.1 mph - N/A   Overcast
6:55 AM 42.8 °F 39.3 °F 28.4 °F 57% 30.11 in 10.0 mi North 5.8 mph - N/A   Overcast
6:56 AM 42.8 °F 39.3 °F 28.4 °F 57% 30.11 in 10.0 mi NNW 5.8 mph - N/A   Overcast
7:15 AM 42.8 °F 39.3 °F 28.4 °F 57% 30.11 in 10.0 mi North 5.8 mph - N/A   Overcast
7:35 AM 44.6 °F 40.2 °F 28.4 °F 53% 30.12 in 10.0 mi North 8.1 mph - N/A   Scattered Clouds
7:55 AM 46.4 °F 42.4 °F 28.4 °F 50% 30.12 in 10.0 mi NNW 8.1 mph - N/A   Mostly Cloudy
7:56 AM 46.4 °F 42.4 °F 28.4 °F 50% 30.12 in 10.0 mi NNW 8.1 mph - N/A   Mostly Cloudy
8:15 AM 46.4 °F 44.3 °F 26.6 °F 46% 30.12 in 10.0 mi North 4.6 mph - N/A   Mostly Cloudy
8:36 AM 46.4 °F 43.5 °F 26.6 °F 46% 30.12 in 10.0 mi North 5.8 mph - N/A   Mostly Cloudy
8:55 AM 46.4 °F 43.5 °F 26.6 °F 46% 30.12 in 10.0 mi North 5.8 mph - N/A   Scattered Clouds
9:15 AM 48.2 °F - 26.6 °F 43% 30.13 in 10.0 mi North 8.1 mph - N/A   Scattered Clouds
9:35 AM 48.2 °F - 26.6 °F 43% 30.12 in 10.0 mi North 5.8 mph - N/A   Scattered Clouds
9:36 AM 48.2 °F - 26.6 °F 43% 30.12 in 10.0 mi NNW 6.9 mph - N/A   Scattered Clouds
9:55 AM 50.0 °F - 24.8 °F 37% 30.13 in 10.0 mi NW 8.1 mph - N/A   Scattered Clouds
9:56 AM 50.0 °F - 24.8 °F 37% 30.13 in 10.0 mi WNW 5.8 mph - N/A   Scattered Clouds
10:15 AM 51.8 °F - 24.8 °F 35% 30.14 in 10.0 mi NNW 11.5 mph - N/A   Scattered Clouds
10:35 AM 53.6 °F - 24.8 °F 33% 30.14 in 10.0 mi NW 11.5 mph 16.1 mph N/A   Clear
10:55 AM 53.6 °F - 23.0 °F 30% 30.13 in 10.0 mi WNW 11.5 mph 19.6 mph N/A   Clear
11:15 AM 53.6 °F - 24.8 °F 33% 30.13 in 10.0 mi WNW 11.5 mph - N/A   Clear
11:16 AM 53.6 °F - 24.8 °F 33% 30.13 in 10.0 mi NW 13.8 mph 18.4 mph N/A   Clear
11:35 AM 53.6 °F - 24.8 °F 33% 30.13 in 10.0 mi WNW 12.7 mph 23.0 mph N/A   Clear
11:36 AM 55.4 °F - 24.8 °F 31% 30.14 in 10.0 mi WNW 12.7 mph 23.0 mph N/A   Clear
11:55 AM 53.6 °F - 24.8 °F 33% 30.14 in 10.0 mi NW 11.5 mph 20.7 mph N/A   Clear
12:15 PM 55.4 °F - 24.8 °F 31% 30.14 in 10.0 mi West 9.2 mph 20.7 mph N/A   Clear
12:16 PM 55.4 °F - 24.8 °F 31% 30.14 in 10.0 mi West 10.4 mph 20.7 mph N/A   Clear
12:35 PM 55.4 °F - 24.8 °F 31% 30.14 in 10.0 mi NW 13.8 mph 19.6 mph N/A   Clear
12:55 PM 55.4 °F - 24.8 °F 31% 30.13 in 10.0 mi WNW 5.8 mph 17.3 mph N/A   Clear
1:15 PM 55.4 °F - 24.8 °F 31% 30.13 in 10.0 mi North 8.1 mph 17.3 mph N/A   Clear
1:16 PM 55.4 °F - 24.8 °F 31% 30.13 in 10.0 mi NNW 6.9 mph 17.3 mph N/A   Clear
1:35 PM 55.4 °F - 24.8 °F 31% 30.13 in 10.0 mi NW 8.1 mph 16.1 mph N/A   Clear
1:55 PM 55.4 °F - 24.8 °F 31% 30.14 in 10.0 mi West 13.8 mph - N/A   Clear
2:15 PM 55.4 °F - 24.8 °F 31% 30.13 in 10.0 mi NW 9.2 mph - N/A   Clear
2:16 PM 55.4 °F - 24.8 °F 31% 30.13 in 10.0 mi WNW 10.4 mph - N/A   Clear
2:35 PM 57.2 °F - 24.8 °F 29% 30.13 in 10.0 mi NNW 5.8 mph - N/A   Clear
2:55 PM 57.2 °F - 26.6 °F 31% 30.13 in 10.0 mi NW 3.5 mph - N/A   Clear
3:15 PM 57.2 °F - 26.6 °F 31% 30.12 in 10.0 mi West 8.1 mph - N/A   Clear
3:16 PM 57.2 °F - 26.6 °F 31% 30.12 in 10.0 mi West 8.1 mph - N/A   Clear
3:35 PM 57.2 °F - 26.6 °F 31% 30.12 in 10.0 mi NW 6.9 mph 16.1 mph N/A   Clear
3:36 PM 57.2 °F - 26.6 °F 31% 30.12 in 10.0 mi NNW 6.9 mph 11.5 mph N/A   Clear
3:55 PM 57.2 °F - 26.6 °F 31% 30.13 in 10.0 mi NW 3.5 mph - N/A   Clear
3:56 PM 57.2 °F - 26.6 °F 31% 30.13 in 10.0 mi NW 5.8 mph - N/A   Clear
4:15 PM 57.2 °F - 24.8 °F 29% 30.12 in 10.0 mi Calm Calm - N/A   Clear
4:35 PM 57.2 °F - 24.8 °F 29% 30.12 in 10.0 mi West 4.6 mph 16.1 mph N/A   Clear
4:55 PM 57.2 °F - 26.6 °F 31% 30.13 in 10.0 mi NNW 10.4 mph - N/A   Clear
4:56 PM 57.2 °F - 26.6 °F 31% 30.13 in 10.0 mi NNW 10.4 mph - N/A   Clear
5:15 PM 57.2 °F - 24.8 °F 29% 30.13 in 10.0 mi NW 6.9 mph - N/A   Clear
5:16 PM 57.2 °F - 24.8 °F 29% 30.13 in 10.0 mi NW 9.2 mph - N/A   Clear
5:35 PM 55.4 °F - 24.8 °F 31% 30.13 in 10.0 mi NW 9.2 mph - N/A   Clear
5:55 PM 55.4 °F - 26.6 °F 33% 30.13 in 10.0 mi NNW 9.2 mph - N/A   Clear
5:56 PM 55.4 °F - 26.6 °F 33% 30.13 in 10.0 mi North 8.1 mph - N/A   Clear
6:15 PM 55.4 °F - 24.8 °F 31% 30.13 in 10.0 mi North 8.1 mph - N/A   Clear
6:35 PM 53.6 °F - 24.8 °F 33% 30.14 in 10.0 mi NNW 8.1 mph - N/A   Clear
6:36 PM 53.6 °F - 24.8 °F 33% 30.14 in 10.0 mi NNW 8.1 mph - N/A   Clear
6:55 PM 53.6 °F - 24.8 °F 33% 30.15 in 10.0 mi North 6.9 mph - N/A   Clear
6:56 PM 53.6 °F - 24.8 °F 33% 30.15 in 10.0 mi North 6.9 mph - N/A   Clear
7:15 PM 53.6 °F - 24.8 °F 33% 30.16 in 10.0 mi North 6.9 mph - N/A   Clear
7:35 PM 51.8 °F - 24.8 °F 35% 30.16 in 10.0 mi North 5.8 mph - N/A   Clear
7:55 PM 51.8 °F - 24.8 °F 35% 30.17 in 10.0 mi North 6.9 mph - N/A   Clear
7:56 PM 51.8 °F - 24.8 °F 35% 30.17 in 10.0 mi North 6.9 mph - N/A   Clear
8:15 PM 51.8 °F - 26.6 °F 38% 30.18 in 10.0 mi North 3.5 mph - N/A   Clear
8:35 PM 50.0 °F - 26.6 °F 40% 30.18 in 10.0 mi North 3.5 mph - N/A   Clear
8:55 PM 48.2 °F - 26.6 °F 43% 30.19 in 10.0 mi NNW 3.5 mph - N/A   Clear
9:15 PM 48.2 °F - 26.6 °F 43% 30.20 in 10.0 mi Calm Calm - N/A   Clear
9:35 PM 48.2 °F - 28.4 °F 46% 30.20 in 10.0 mi NW 3.5 mph - N/A   Clear
9:36 PM 48.2 °F - 28.4 °F 46% 30.20 in 10.0 mi NW 3.5 mph - N/A   Clear
9:55 PM 46.4 °F 45.2 °F 28.4 °F 50% 30.21 in 10.0 mi NW 3.5 mph - N/A   Clear
9:56 PM 46.4 °F 45.2 °F 28.4 °F 50% 30.21 in 10.0 mi NW 3.5 mph - N/A   Clear
10:15 PM 46.4 °F 45.2 °F 28.4 °F 50% 30.21 in 10.0 mi West 3.5 mph - N/A   Clear
10:35 PM 44.6 °F - 30.2 °F 57% 30.22 in 10.0 mi Calm Calm - N/A   Clear
10:55 PM 44.6 °F 43.1 °F 28.4 °F 53% 30.22 in 10.0 mi WNW 3.5 mph - N/A   Clear
10:56 PM 44.6 °F 43.1 °F 28.4 °F 53% 30.22 in 10.0 mi WNW 3.5 mph - N/A   Clear
11:15 PM 42.8 °F 38.6 °F 28.4 °F 57% 30.22 in 10.0 mi NNW 6.9 mph - N/A   Clear
11:16 PM 42.8 °F 38.6 °F 28.4 °F 57% 30.22 in 10.0 mi NNW 6.9 mph - N/A   Clear
11:35 PM 42.8 °F 39.3 °F 26.6 °F 53% 30.22 in 10.0 mi NNW 5.8 mph - N/A   Clear
11:36 PM 42.8 °F 39.3 °F 26.6 °F 53% 30.22 in 10.0 mi NNW 5.8 mph - N/A   Clear
11:55 PM 42.8 °F 38.6 °F 26.6 °F 53% 30.22 in 10.0 mi NNW 6.9 mph - N/A   Clear